カタログに戻る

SMDC ONE 1.2

運用中軍事VLEO
NORAD 38759·PAYLOAD·🇺🇸 United States

打ち上げ Sep 13, 2012 から Vandenberg Space Force Base

Loading…

次のパス (今後24時間)

TLE

最新Source: Space-Track

元期: Sep 14, 2026, 14:02 UTC

1 38759U 12048B   26257.58472429  .00005299  00000-0  21960-3 0  9996
2 38759  64.6556 245.4761 0078110 145.6671 214.9540 15.22289492129755

AllMySatでSMDC ONE 1.2をリアルタイム追跡

Download on the App Store